Other Surface Observations
Issued by NWS Charleston, SC

Home | Current Version | Previous Version | Text Only | Print | Product List | Glossary On
Versions: 1 2 3 4 5 6 7 8 9 10 11 12 13 14 15 16 17 18 19 20 21 22 23 24 25 26 27 28 29 30 31 32 33 34 35 36 37 38 39 40 41 42 43 44 45 46 47 48 49 50
000
SXUS52 KCHS 060911
OSOCHS
MARINE OBSERVATIONS
NATIONAL WEATHER SERVICE CHARLESTON SC
400 AM EST FRI MAR 06 2015

...DOWNTOWN CHARLESTON AND HARBOR...

CITY           SKY/WX    TMP DP  RH WIND       PRES   REMARKS
WATERFRONT PRK NOT AVBL
FORT JOHNSON   NOT AVBL

...LAKE MOULTRIE...

CITY           SKY/WX    TMP DP  RH WIND       PRES   REMARKS
PINOPOLIS        N/A     41  36  81 NE15      30.23R

...LAKE AND SUPPLEMENTAL COASTAL OBSERVATIONS...

STATION/POSITION TIME  TEMP    WIND        PRES    WAVE   SWELL
                       AIR SEA DIR/SP/G            HT/PER HT/PER/DIR
                 (UTC) (F)     (DEG/KT/KT) (MB)    (FT/S) (FT/S/D)
FORT PULASKI     0800   44 54   20/ 18/ 24 1024.7R
SAPELO ISLAND    0800   53     360/  9     1023.0R
UPR LAKE MARION  NOT AVBL
WINYAH BAY       NOT AVBL
LAKE MURRAY      0800   39      30/  6/ 10 1026.4R
ACE BASIN NERRS  NOT AVBL


...C-MAN AND BUOY OBSERVATIONS...

STATION/POSITION TIME  TEMP    WIND        PRES    WAVE   SWELL
                       AIR SEA DIR/SP/G            HT/PER HT/PER/DIR
                 (UTC) (F)     (DEG/KT/KT) (MB)    (FT/S) (FT/S/D)
BUOY 41004       0850   47 68   30/ 29/ 37 1022.5R  10/ 7
BUOY 41008       0850   48 54   40/ 21/ 27 1023.1R   4/ 4   2/ 70/10
FOLLY BEACH CMAN 0900   40      10/ 18/ 20 1025.9R
CAPERS NS BUOY   0800   41      40/ 21/ 25   N/A
FRIPP NS BUOY    0800   43      20/ 21/ 23 1023.8R
5E ST. MARYS GA  0821      55                N/A     3/11


STATION/POSITION TIME  TEMP    WIND        PRES    WAVE   SWELL
                       AIR SEA DIR/SP/G            HT/PER HT/PER/DIR
                 (UTC) (F)     (DEG/KT/KT) (MB)    (FT/S) (FT/S/D)
FRYING PAN BUOY  0850   44 63   20/ 27/ 33 1024.1R   9/ 8   2/ 10/12
BUOY 41025       NOT AVBL
CAPE LOOKOUT NC  0900           10/ 19/ 25 1025.9F
BUOY 41002       0850   74 72  240/ 19/ 25 1017.9F   8/ 7   3/110/10
BUOY 41010       0820   75 75  200/ 12/ 14 1019.5F
ST AUGUSTINE FL  0900   56     360/ 21/ 24 1021.6S

$$



USA.gov is the U.S. government's official web portal to all federal, state and local government web resources and services.